User: anonymous   Login
Location: Caltech
(34.1382°N, 118.1253°W)
Time: 10:48:39
(UTC-07:00)
Language:

Cosmos 1975 - Orbit

View from above orbital plane
View from above orbital plane
View from above satellite
View from above satellite

Ground track
Ground track

The orbit data is extracted from the following two-line orbital elements,

1 19573U 88093A   16210.66125275  .00000822  00000-0  57697-4 0  9997
2 19573  82.5221 298.3960 0013623 325.2020  34.8314 15.03777296511189
Epoch (UTC): 28 July 2016 15:52:12
Eccentricity: 0.0013623
inclination: 82.5221°
perigee height: 546 km
apogee height: 565 km
right ascension of ascending node: 298.3960°
argument of perigee: 325.2020°
revolutions per day: 15.03777296
mean anomaly at epoch: 34.8314°
orbit number at epoch: 51118

The dashed part of the orbit path shows where the satellite is in the earth's shadow,  

DLR